IW3HBX-13 Weather Reports


Display with metric or nautical units.
time (UTC)temp
F
wind
direction
speed
MPH
gust
MPH
rain 1hr
in
rain 24hr
in
rain mn
in
humidity
%
barometer
mb
20260906221130 74 135 0.0 0.0 0.00 0.00 0.00 77 1023.3
20260906220131 75 135 0.0 2.0 0.00 0.00 0.00 76 1023.2
20260906215130 75 135 1.0 2.0 0.00 0.00 0.00 76 1023.4
20260906214131 75 135 0.0 0.0 0.00 0.00 0.00 77 1023.4
20260906213128 75 135 0.0 0.0 0.00 0.00 0.00 76 1023.3
20260906212127 73 135 0.0 0.0 0.00 0.00 0.00 77 1023.3
20260906211129 74 135 0.0 0.0 0.00 0.00 0.00 80 1023.4
20260906210130 75 135 0.0 0.0 0.00 0.00 0.00 77 1023.2
20260906205130 75 135 0.0 2.0 0.00 0.00 0.00 77 1023.1
20260906204128 75 135 0.0 0.0 0.00 0.00 0.00 78 1023.0
20260906203128 75 135 0.0 0.0 0.00 0.00 0.00 77 1023.0
20260906202130 76 135 0.0 0.0 0.00 0.00 0.00 75 1023.0
20260906201130 77 135 0.0 0.0 0.00 0.00 0.00 75 1022.9
20260906200127 77 135 0.0 0.0 0.00 0.00 0.00 73 1022.9
20260906195128 78 135 0.0 0.0 0.00 0.00 0.00 72 1022.8
20260906194130 77 135 0.0 0.0 0.00 0.00 0.00 72 1022.7
20260906193128 78 135 0.0 0.0 0.00 0.00 0.00 71 1022.7
20260906192128 79 135 0.0 0.0 0.00 0.00 0.00 67 1022.6
20260906191129 79 135 0.0 0.0 0.00 0.00 0.00 69 1022.7
20260906190131 79 135 0.0 0.0 0.00 0.00 0.00 66 1022.6
20260906185127 79 135 0.0 0.0 0.00 0.00 0.00 66 1022.6
20260906184130 80 135 0.0 0.0 0.00 0.00 0.00 64 1022.6
20260906183128 81 135 0.0 0.0 0.00 0.00 0.00 60 1022.4
20260906182130 80 135 0.0 0.0 0.00 0.00 0.00 59 1022.3
20260906181127 80 135 0.0 0.0 0.00 0.00 0.00 59 1022.3
20260906180130 81 135 0.0 0.0 0.00 0.00 0.00 59 1022.2
20260906175131 82 135 0.0 0.0 0.00 0.00 0.00 58 1022.1
20260906174127 82 135 0.0 0.0 0.00 0.00 0.00 57 1022.0
20260906173129 83 135 0.0 0.0 0.00 0.00 0.00 54 1022.0
20260906172128 84 135 0.0 0.0 0.00 0.00 0.00 53 1022.0
20260906171129 85 135 1.0 2.0 0.00 0.00 0.00 52 1021.9
20260906170129 86 135 2.0 3.0 0.00 0.00 0.00 49 1022.0
20260906165130 87 137 1.0 2.0 0.00 0.00 0.00 48 1022.0
20260906164127 88 158 2.0 3.0 0.00 0.00 0.00 45 1022.0
20260906163130 86 116 2.0 4.0 0.00 0.00 0.00 45 1021.8
20260906162129 85 76 2.0 4.0 0.00 0.00 0.00 44 1021.9
20260906161131 87 136 2.0 4.0 0.00 0.00 0.00 45 1021.8
20260906160128 87 147 3.0 4.0 0.00 0.00 0.00 45 1021.9
20260906155128 88 119 1.0 3.0 0.00 0.00 0.00 43 1021.8
20260906154128 88 83 1.0 2.0 0.00 0.00 0.00 44 1021.9
20260906153127 88 140 3.0 6.0 0.00 0.00 0.00 43 1021.9
20260906152129 87 82 1.0 4.0 0.00 0.00 0.00 42 1021.9
20260906151131 88 139 1.0 4.0 0.00 0.00 0.00 42 1021.9
20260906150129 88 101 2.0 3.0 0.00 0.00 0.00 43 1021.9
20260906145129 87 91 2.0 4.0 0.00 0.00 0.00 42 1022.0
20260906144130 88 108 2.0 3.0 0.00 0.00 0.00 41 1022.0
20260906143127 88 101 3.0 4.0 0.00 0.00 0.00 42 1022.1
20260906142128 88 86 2.0 4.0 0.00 0.00 0.00 42 1022.1
20260906141130 89 114 2.0 3.0 0.00 0.00 0.00 43 1022.2
20260906140129 88 137 2.0 3.0 0.00 0.00 0.00 42 1022.0
20260906135505 86 109 4.0 5.0 0.00 0.00 0.00 44 1022.1
20260906135128 86 109 4.0 5.0 0.00 0.00 0.00 44 1022.1
20260906134131 88 37 2.0 3.0 0.00 0.00 0.00 43 1022.0
20260906133127 87 76 2.0 4.0 0.00 0.00 0.00 43 1022.2
20260906132131 88 130 2.0 7.0 0.00 0.00 0.00 42 1022.2
20260906131130 86 69 3.0 5.0 0.00 0.00 0.00 44 1022.3
20260906130129 86 75 3.0 5.0 0.00 0.00 0.00 44 1022.3
20260906125128 87 134 2.0 2.0 0.00 0.00 0.00 43 1022.5
20260906124128 85 67 2.0 5.0 0.00 0.00 0.00 44 1022.5
20260906123131 86 80 2.0 4.0 0.00 0.00 0.00 45 1022.5
20260906122331 86 84 4.0 5.0 0.00 0.00 0.00 45 1022.5
20260906122127 86 84 4.0 5.0 0.00 0.00 0.00 45 1022.5
20260906121131 86 53 3.0 5.0 0.00 0.00 0.00 44 1022.5
20260906120129 86 50 3.0 5.0 0.00 0.00 0.00 42 1022.5
20260906115131 86 88 2.0 6.0 0.00 0.00 0.00 43 1022.6
20260906114128 85 62 3.0 6.0 0.00 0.00 0.00 44 1022.6
20260906113127 85 61 0.0 0.0 0.00 0.00 0.00 43 1022.6
20260906112127 86 70 3.0 4.0 0.00 0.00 0.00 43 1022.6
20260906111131 86 59 4.0 5.0 0.00 0.00 0.00 44 1022.7
20260906110131 85 51 3.0 5.0 0.00 0.00 0.00 44 1022.7
20260906105130 84 62 5.0 6.0 0.00 0.00 0.00 43 1022.7
20260906104128 84 59 2.0 3.0 0.00 0.00 0.00 45 1022.8
20260906103129 85 65 3.0 4.0 0.00 0.00 0.00 44 1022.8
20260906102130 84 58 2.0 4.0 0.00 0.00 0.00 45 1022.9
20260906101127 84 82 5.0 8.0 0.00 0.00 0.00 44 1022.9
20260906100128 84 58 4.0 7.0 0.00 0.00 0.00 46 1023.0
20260906095128 84 68 2.0 5.0 0.00 0.00 0.00 45 1023.0
20260906094131 84 66 3.0 4.0 0.00 0.00 0.00 44 1023.1
20260906093130 83 68 3.0 5.0 0.00 0.00 0.00 45 1023.2
20260906092128 82 65 3.0 7.0 0.00 0.00 0.00 48 1023.2
20260906091128 83 68 3.0 5.0 0.00 0.00 0.00 46 1023.2
20260906090128 82 62 5.0 6.0 0.00 0.00 0.00 46 1023.3
20260906085128 82 57 5.0 6.0 0.00 0.00 0.00 49 1023.2
20260906084129 81 60 6.0 9.0 0.00 0.00 0.00 49 1023.4
20260906083129 82 71 3.0 6.0 0.00 0.00 0.00 50 1023.3
20260906082127 81 60 6.0 10.0 0.00 0.00 0.00 50 1023.3
20260906081129 81 65 2.0 5.0 0.00 0.00 0.00 51 1023.2
20260906080127 81 68 3.0 5.0 0.00 0.00 0.00 52 1023.1
20260906075130 80 61 6.0 10.0 0.00 0.00 0.00 54 1023.0
20260906074131 80 66 4.0 6.0 0.00 0.00 0.00 54 1023.0
20260906073131 79 55 7.0 11.0 0.00 0.00 0.00 57 1023.2
20260906072128 79 60 3.0 5.0 0.00 0.00 0.00 57 1023.0
20260906071127 78 63 7.0 12.0 0.00 0.00 0.00 59 1022.9
20260906070131 78 61 5.0 10.0 0.00 0.00 0.00 60 1022.8
20260906065131 78 62 2.0 3.0 0.00 0.00 0.00 60 1022.7
20260906064132 77 56 3.0 5.0 0.00 0.00 0.00 64 1022.7
20260906063131 78 48 3.0 6.0 0.00 0.00 0.00 66 1022.6
20260906062131 78 319 3.0 3.0 0.00 0.00 0.00 65 1022.5
20260906061128 77 72 2.0 2.0 0.00 0.00 0.00 66 1022.3
20260906060130 77 65 3.0 4.0 0.00 0.00 0.00 67 1022.2
20260906055130 76 70 0.0 1.0 0.00 0.00 0.00 69 1022.2
20260906054128 76 73 2.0 3.0 0.00 0.00 0.00 69 1021.9
20260906053131 75 60 2.0 4.0 0.00 0.00 0.00 72 1021.8
20260906052130 74 62 2.0 2.0 0.00 0.00 0.00 75 1021.8
20260906051129 73 56 2.0 3.0 0.00 0.00 0.00 76 1021.5
20260906050128 73 74 0.0 1.0 0.00 0.00 0.00 77 1021.4
20260906045129 73 61 1.0 2.0 0.00 0.00 0.00 78 1021.4
20260906044130 73 68 2.0 4.0 0.00 0.00 0.00 78 1021.3
20260906043128 73 64 1.0 2.0 0.00 0.00 0.00 78 1021.3
20260906042129 73 295 2.0 3.0 0.00 0.00 0.00 77 1021.2
20260906041131 73 24 2.0 2.0 0.00 0.00 0.00 78 1021.1
20260906040127 73 286 0.0 0.0 0.00 0.00 0.00 78 1021.1
20260906035129 73 275 0.0 2.0 0.00 0.00 0.00 77 1021.0
20260906034131 73 85 1.0 2.0 0.00 0.00 0.00 76 1020.9
20260906033128 74 52 2.0 3.0 0.00 0.00 0.00 76 1020.9
20260906032131 74 51 1.0 2.0 0.00 0.00 0.00 76 1020.8
20260906031128 74 61 1.0 2.0 0.00 0.00 0.00 76 1020.8
20260906030129 74 50 1.0 1.0 0.00 0.00 0.00 76 1020.9
20260906025130 74 52 0.0 0.0 0.00 0.00 0.00 76 1020.9
20260906024128 74 68 1.0 2.0 0.00 0.00 0.00 75 1020.9
20260906023128 75 67 1.0 2.0 0.00 0.00 0.00 73 1020.8
20260906022130 75 66 0.0 1.0 0.00 0.00 0.00 73 1020.6
20260906021129 75 61 1.0 3.0 0.00 0.00 0.00 73 1020.7
20260906020128 75 56 2.0 2.0 0.00 0.00 0.00 73 1020.7
20260906015128 75 58 1.0 2.0 0.00 0.00 0.00 73 1020.6
20260906014131 75 3 1.0 2.0 0.00 0.00 0.00 75 1020.5
20260906013128 76 37 1.0 3.0 0.00 0.00 0.00 75 1020.4
20260906012129 76 351 1.0 2.0 0.00 0.00 0.00 77 1020.4
20260906011128 76 51 1.0 2.0 0.00 0.00 0.00 76 1020.3
20260906010130 76 67 2.0 4.0 0.00 0.00 0.00 77 1020.3
20260906005129 76 67 1.0 2.0 0.00 0.00 0.00 78 1020.5
20260906004129 76 63 2.0 4.0 0.00 0.00 0.00 80 1020.4
20260906003128 76 62 3.0 5.0 0.00 0.00 0.00 81 1020.4
20260906002130 76 64 2.0 4.0 0.00 0.00 0.00 83 1020.4
20260906001130 76 79 2.0 4.0 0.00 0.00 0.00 86 1020.4
20260906000128 76 75 1.0 2.0 0.00 0.00 0.00 86 1020.5
20260905235131 76 73 2.0 2.0 0.00 0.00 0.00 86 1020.4
20260905234129 76 65 2.0 4.0 0.00 0.00 0.00 86 1020.3
20260905233128 76 46 1.0 2.0 0.00 0.00 0.00 86 1020.3
20260905232128 77 49 0.0 0.0 0.00 0.00 0.00 86 1020.1
20260905231127 77 309 0.0 2.0 0.00 0.00 0.00 86 1020.2
20260905230131 77 350 2.0 3.0 0.00 0.00 0.00 85 1020.3
20260905225131 77 57 1.0 3.0 0.00 0.00 0.00 86 1020.2
20260905224130 77 18 2.0 3.0 0.00 0.00 0.00 86 1020.1
20260905223130 77 48 1.0 2.0 0.00 0.00 0.00 86 1020.2
20260905222129 78 59 1.0 2.0 0.00 0.00 0.00 88 1020.0